Weather History for KPHP - April, 2014

Change the Weather History Date:

Wednesday, April 30, 2014

  Actual Average Record
Temperature  
Mean Temperature 46 °F 52 °F  
Max Temperature 54 °F 66 °F 92 °F (1968)
Min Temperature 37 °F 38 °F 14 °F (1950)
Degree Days  
Heating Degree Days 19 14  
Month to date heating degree days 569 563  
Since 1 July heating degree days 7162 6867  
Cooling Degree Days 0 0  
Month to date cooling degree days 0 3  
Year to date cooling degree days 0 3  
Moisture  
Dew Point 30 °F    
Average Humidity 59    
Maximum Humidity 82    
Minimum Humidity 35    
Precipitation  
Precipitation 0.00 in 0.10 in 0.90 in (1983)
Month to date precipitation 1.42 1.84  
Year to date precipitation 2.44 3.89  
Sea Level Pressure  
Sea Level Pressure 30.16 in    
Wind  
Wind Speed 22 mph (NNW)    
Max Wind Speed 38 mph    
Max Gust Speed 46 mph    
Visibility 10 miles    
Events      
T = Trace of Precipitation, MM = Missing Value Source: NWS Daily Summary

Daily Weather History Graph

Daily Weather History Graph

Search for Another Location

Airport or City:

Trip Planner

Search our weather history database for the weather conditions in past years. The results will help you decide how hot, cold, wet, or windy it might be!

Date:

Astronomy

Apr. 30, 2014 Rise Set
Actual Time 5:39 AM MDT 7:48 PM MDT
Civil Twilight 5:07 AM MDT 8:20 PM MDT
Nautical Twilight 4:28 AM MDT 8:59 PM MDT
Astronomical Twilight 3:45 AM MDT 9:42 PM MDT
Moon 6:40 AM MDT 9:31 PM MDT
Length of Visible Light 15h 12m
Length of Day
14h 09m
Waxing Crescent, 3% of the Moon is Illuminated
Apr 30
Waxing Crescent
May 6
First Quarter
May 14
Full
May 21
Last Quarter
May 28
New

Hourly Weather History & Observations

Time (MDT) Temp. Windchill Dew Point Humidity Pressure Visibility Wind Dir Wind Speed Gust Speed Precip Events Conditions
12:55 AM 37.9 °F 26.8 °F 32.0 °F 79% 30.20 in 10.0 mi NW 24.2 mph 31.1 mph N/A   Mostly Cloudy
1:55 AM 37.9 °F 27.1 °F 32.0 °F 79% 30.19 in 10.0 mi NW 23.0 mph 31.1 mph N/A   Mostly Cloudy
2:55 AM 37.9 °F 26.6 °F 32.0 °F 79% 30.19 in 10.0 mi NW 25.3 mph 34.5 mph N/A   Mostly Cloudy
3:03 AM 37.9 °F 26.8 °F 32.0 °F 79% 30.15 in 10.0 mi NW 24.2 mph 32.2 mph N/A   Mostly Cloudy
3:55 AM 39.0 °F 28.8 °F 32.0 °F 76% 30.19 in 10.0 mi NW 21.9 mph 31.1 mph N/A   Overcast
4:08 AM 39.0 °F 28.3 °F 32.0 °F 76% 30.15 in 10.0 mi NW 24.2 mph 29.9 mph N/A   Overcast
4:29 AM 37.9 °F 27.1 °F 32.0 °F 79% 30.16 in 10.0 mi NW 23.0 mph 29.9 mph N/A   Overcast
4:55 AM 37.9 °F 27.6 °F 32.0 °F 79% 30.19 in 10.0 mi NW 20.7 mph 31.1 mph N/A   Overcast
5:55 AM 37.9 °F 25.9 °F 30.9 °F 76% 30.19 in 10.0 mi NNW 28.8 mph 36.8 mph N/A   Overcast
6:55 AM 37.9 °F 26.6 °F 30.9 °F 76% 30.20 in 10.0 mi NNW 25.3 mph 33.4 mph N/A   Overcast
7:55 AM 37.9 °F 26.6 °F 30.0 °F 73% 30.22 in 10.0 mi NNW 25.3 mph 36.8 mph N/A   Overcast
9:55 AM 45.0 °F 35.8 °F 30.9 °F 58% 30.20 in 10.0 mi NNW 26.5 mph 41.4 mph N/A   Mostly Cloudy
10:55 AM 46.0 °F 37.2 °F 28.0 °F 50% 30.19 in 10.0 mi NNW 26.5 mph 39.1 mph N/A   Scattered Clouds
11:55 AM 46.9 °F - 28.0 °F 48% 30.18 in 10.0 mi NNW 24.2 mph 39.1 mph N/A   Scattered Clouds
12:55 PM 48.9 °F - 27.0 °F 43% 30.16 in 10.0 mi NNW 31.1 mph 38.0 mph N/A   Mostly Cloudy
1:55 PM 50.0 °F - 25.0 °F 38% 30.15 in 10.0 mi NNW 29.9 mph 35.7 mph N/A   Partly Cloudy
3:55 PM 53.1 °F - 28.0 °F 38% 30.12 in 10.0 mi NNW 32.2 mph 41.4 mph N/A   Mostly Cloudy
4:55 PM 52.0 °F - 27.0 °F 38% 30.12 in 10.0 mi NNW 24.2 mph 38.0 mph N/A   Overcast
5:55 PM 51.1 °F - 28.0 °F 41% 30.12 in 10.0 mi NNW 20.7 mph 31.1 mph N/A   Overcast
6:55 PM 50.0 °F - 30.9 °F 48% 30.12 in 10.0 mi NNW 11.5 mph - N/A   Overcast
7:55 PM 48.9 °F - 30.0 °F 48% 30.12 in 10.0 mi NNW 10.4 mph - N/A   Overcast
8:55 PM 46.9 °F - 30.0 °F 52% 30.14 in 10.0 mi NNW 9.2 mph - N/A   Overcast
9:55 PM 46.0 °F 41.0 °F 30.0 °F 54% 30.14 in 10.0 mi NW 10.4 mph - N/A   Overcast
10:55 PM 44.1 °F 37.7 °F 28.9 °F 55% 30.14 in 10.0 mi NW 12.7 mph - N/A   Overcast
11:55 PM 41.0 °F 33.9 °F 28.0 °F 60% 30.14 in 10.0 mi NNW 12.7 mph - N/A   Overcast